User: anonymous   Login
Location: Peebles
(55.6412°N, 3.1714°W)
Time: 08:02:24
(UTC+00:00)
Language:

USA 306 - Orbit

View from above orbital plane
View from above orbital plane
View from above satellite
View from above satellite

Ground track
Ground track

The orbit data is extracted from the following two-line orbital elements,

1 45874U 20046B   21329.69799079 0.00004000  00000-0  31654-3 0    02
2 45874  53.9880 284.0684 0008548 164.9623 195.0376 15.00135407    08
Epoch (UTC): 25 November 2021 16:45:06
Eccentricity: 0.0008548
inclination: 53.9880°
perigee height: 560 km
apogee height: 572 km
right ascension of ascending node: 284.0684°
argument of perigee: 164.9623°
revolutions per day: 15.00135407
mean anomaly at epoch: 195.0376°
orbit number at epoch: 0

The dashed part of the orbit path shows where the satellite is in the earth's shadow,  

DLR